Location: Lisboa
(38.7078°N, 9.1366°W)
Time: 04:58:12
(UTC+00:00)

Tiangong - Visible Passes

Search period start: 18 January 2026 00:00
Search period end: 28 January 2026 00:00
Orbit: 378 x 394 km, 41.5° (Epoch: 17 January)

Date Brightness Start Highest point End Pass type
(mag) Time Alt. Az. Time Alt. Az. Time Alt. Az.
18 Jan -1.5 06:44:02 13° SW 06:46:44 55° SSE 06:49:53 10° ENE visible
19 Jan -0.3 05:48:03 30° SE 05:48:03 30° SE 05:50:26 10° E visible
19 Jan -2.0 07:21:07 10° W 07:24:17 65° NNW 07:27:29 10° ENE visible
20 Jan -2.2 06:24:08 48° WSW 06:24:55 89° SSE 06:28:08 10° ENE visible
21 Jan 0.8 05:27:47 18° E 05:27:47 18° E 05:28:43 10° ENE visible
21 Jan -1.8 07:00:01 15° W 07:02:29 52° N 07:05:38 10° ENE visible
22 Jan -1.6 06:03:33 52° NE 06:03:33 52° NE 06:06:11 10° ENE visible
23 Jan -1.7 06:39:13 27° WNW 06:40:34 48° N 06:43:40 10° ENE visible
24 Jan 0.0 05:42:34 25° ENE 05:42:34 25° ENE 05:44:07 10° ENE visible
24 Jan -1.9 07:14:56 10° WNW 07:18:05 62° N 07:21:15 10° E visible
25 Jan -1.8 06:18:05 47° NNW 06:18:30 51° N 06:21:37 10° E visible
26 Jan 1.1 05:21:21 14° ENE 05:21:21 14° ENE 05:21:57 10° ENE visible
26 Jan -2.2 06:53:34 17° WNW 06:55:53 86° NNE 06:59:04 10° ESE visible
27 Jan -1.4 05:56:48 51° ENE 05:56:48 51° ENE 05:59:25 10° E visible
